User: anonymous   Login
Location: Unspecified
(0.0000°N, 0.0000°E)
Time: 23:15:47
(UTC+00:00)
Language:

OPAL - Orbit

View from above orbital plane
View from above orbital plane
View from above satellite
View from above satellite

Ground track
Ground track

The orbit data is extracted from the following two-line orbital elements,

1 26063U 00004C   18109.78735240 -.00000007  00000-0  17557-4 0  9993
2 26063 100.1952 175.1105 0036782 163.3557 196.8839 14.36694890955400
Epoch (UTC): 19 April 2018 18:53:47
Eccentricity: 0.0036782
inclination: 100.1952°
perigee height: 743 km
apogee height: 796 km
right ascension of ascending node: 175.1105°
argument of perigee: 163.3557°
revolutions per day: 14.36694890
mean anomaly at epoch: 196.8839°
orbit number at epoch: 95540

The dashed part of the orbit path shows where the satellite is in the earth's shadow,  

DLR